DateTimeUTC,F1_A11,F1_S11,BsB_S11,BsG_S11,BsR_S11,BbsB_S11,BbsG_S11,BbsR_S11,BaB_A11,BaG_A11,BaR_A11,Tu_S11,T_S11,Uu_S11,U_S11,P_S11,T1_A11
2021-07-15T05:00:00Z,00000200,20000000,,,,,,,-000.11,-000.17,-000.32,18.1,24.9,07.6,05.0,0660.4,31.0
2021-07-15T05:01:00Z,00000200,20000000,,,,,,,0000.20,-000.24,-000.18,18.1,24.9,07.6,05.0,0660.4,31.0
2021-07-15T05:02:00Z,00000200,20000000,,,,,,,-000.14,0000.10,0000.04,18.1,24.9,07.3,04.8,0660.4,31.0
2021-07-15T05:03:00Z,00000200,60000000,,,,,,,0000.16,-000.05,0000.10,18.1,24.9,07.3,04.8,0660.4,31.0
2021-07-15T05:04:00Z,00000200,40000000,0001.27,0000.42,0000.13,0000.01,0000.12,0000.04,-000.09,0000.14,0000.06,18.1,24.6,07.4,04.9,0661.3,31.0
2021-07-15T05:05:00Z,00000200,00000000,0000.17,0000.23,0000.32,-000.21,-000.03,0000.08,0000.01,-000.23,-000.23,18.1,24.5,07.4,05.0,0661.4,31.0
2021-07-15T05:06:00Z,00000200,00000000,0000.96,0000.30,0000.03,-000.01,-000.00,-000.01,0000.07,0000.30,-000.08,18.1,24.5,07.4,05.0,0661.4,31.0
2021-07-15T05:07:00Z,00000200,00000000,0000.92,0000.17,0000.15,-000.05,0000.04,-000.13,0000.10,0000.05,0000.24,18.2,24.6,07.4,05.0,0661.4,31.0
2021-07-15T05:08:00Z,00000200,00000000,0000.54,0000.40,0000.28,-000.18,0000.02,-000.29,-000.04,0000.30,0000.30,18.3,24.6,07.4,05.0,0661.3,31.0
2021-07-15T05:09:00Z,00000200,00000000,0000.06,0000.39,0000.50,-000.11,0000.35,-000.10,0000.00,-000.32,-000.13,18.3,24.6,07.4,05.0,0661.4,31.0
2021-07-15T05:10:00Z,00000200,00000000,0000.46,0000.43,0000.32,0000.56,-000.03,0000.12,-000.14,-000.18,-000.22,18.3,24.6,07.3,05.0,0661.4,31.0
2021-07-15T05:11:00Z,00000200,00000000,-000.03,0000.27,0000.24,0000.38,0000.16,-000.02,0000.17,0000.03,0000.11,18.3,24.6,07.2,04.9,0661.4,31.0
2021-07-15T05:12:00Z,00000200,00000000,0001.06,0000.60,-000.01,0000.10,-000.02,-000.40,-000.25,0000.00,0000.16,18.2,24.6,07.1,04.9,0661.4,31.0
2021-07-15T05:13:00Z,00000200,00000000,0000.24,0000.38,0000.26,0000.29,-000.03,0000.36,-000.15,-000.23,-000.45,18.2,24.5,07.1,04.8,0661.4,31.0
2021-07-15T05:14:00Z,00000200,00010000,-000.20,0000.56,0000.43,-000.22,0000.03,0000.13,-000.16,0000.06,0000.01,18.2,24.5,07.1,04.8,0661.4,31.0
2021-07-15T05:15:00Z,00000200,00000000,0000.77,0000.30,0000.09,0000.24,0000.06,0000.10,0000.32,-000.03,-000.07,18.2,24.5,07.1,04.8,0661.4,31.0
2021-07-15T05:16:00Z,00000200,00000000,0000.72,0000.61,0000.37,-000.13,0000.44,0000.24,-000.42,-000.26,0000.15,18.1,24.5,07.1,04.8,0661.4,31.0
2021-07-15T05:17:00Z,00000200,00000000,0000.11,0000.31,0000.45,0000.25,-000.24,0000.00,-000.05,0000.05,-000.09,18.1,24.5,07.1,04.8,0661.3,31.0
2021-07-15T05:18:00Z,00000200,00000000,0000.27,0000.69,0000.46,-000.19,0000.11,0000.19,0000.16,0000.23,0000.21,18.1,24.5,07.2,04.9,0661.4,31.0
2021-07-15T05:19:00Z,00000200,00000000,0001.11,0000.61,0000.52,0000.26,0000.40,0000.34,0000.18,0000.04,-000.07,18.1,24.5,07.1,04.8,0661.4,31.0
2021-07-15T05:20:00Z,00000200,00000000,0000.67,0000.55,0000.38,-000.44,-000.04,-000.08,0000.20,-000.04,-000.05,18.1,24.5,07.3,04.9,0661.3,31.0
2021-07-15T05:21:00Z,00000200,00000000,0000.23,0000.97,0000.46,0000.97,0000.38,0000.21,0000.12,0000.44,0000.18,18.1,24.4,07.4,05.0,0661.3,31.0
2021-07-15T05:22:00Z,00000200,00000000,0001.22,0000.52,0000.09,0000.31,-000.02,-000.05,0000.27,0000.08,0000.09,18.1,24.4,07.3,05.0,0661.4,31.0
2021-07-15T05:23:00Z,00000200,00000000,0000.17,0000.66,0000.15,0000.17,-000.10,-000.03,-000.28,-000.03,0000.10,18.2,24.5,07.2,04.9,0661.4,31.0
2021-07-15T05:24:00Z,00000200,00000000,0000.96,0000.37,0000.32,0000.32,0000.22,-000.07,0000.49,0000.08,0000.36,18.3,24.5,07.3,05.0,0661.4,31.0
2021-07-15T05:25:00Z,00000200,00000000,0000.54,0000.53,0000.42,0000.64,0000.10,0000.05,0000.01,0000.29,0000.09,18.4,24.6,07.3,05.0,0661.4,31.0
2021-07-15T05:26:00Z,00000200,00000000,0000.58,0000.74,0000.42,0000.20,0000.25,0000.30,-000.24,-000.41,-000.42,18.5,24.6,07.2,05.0,0661.4,31.0
2021-07-15T05:27:00Z,00000200,00000000,0001.28,0000.69,0000.66,-000.02,0000.01,0000.14,-000.01,0000.21,0000.11,18.4,24.6,07.2,04.9,0661.3,31.0
2021-07-15T05:28:00Z,00000200,00000000,0000.93,0000.85,0000.16,0000.28,0000.21,-000.06,-000.27,-000.27,-000.09,18.4,24.6,07.2,04.9,0661.3,31.0
2021-07-15T05:29:00Z,00000200,00000000,0000.61,0000.69,0000.41,0000.16,0000.20,-000.12,0000.26,-000.05,0000.31,18.4,24.6,07.3,05.0,0661.3,31.0
2021-07-15T05:30:00Z,00000200,00000000,0000.99,0000.84,0000.44,0000.50,0000.02,-000.05,-000.26,0000.11,-000.21,18.3,24.6,07.4,05.0,0661.3,31.0
2021-07-15T05:31:00Z,00000200,00000000,0000.44,0000.61,0000.40,-000.44,-000.01,0000.14,0000.16,0000.03,0000.17,18.3,24.5,07.5,05.1,0661.3,31.0
2021-07-15T05:32:00Z,00000200,00000000,0000.85,0001.02,0000.42,-000.48,0000.07,-000.00,0000.06,-000.36,-000.21,18.3,24.5,07.4,05.0,0661.3,31.0
2021-07-15T05:33:00Z,00000200,00000000,0000.99,0000.67,0000.14,0000.82,0000.16,0000.06,0000.12,0000.11,0000.47,18.2,24.5,07.5,05.1,0661.3,31.0
2021-07-15T05:34:00Z,00000200,00000000,0001.28,0000.94,0000.20,0000.05,0000.09,-000.01,0000.10,0000.38,-000.13,18.2,24.5,07.5,05.1,0661.3,31.0
2021-07-15T05:35:00Z,00000200,00000000,0000.53,0000.52,0000.50,-000.02,0000.14,0000.15,0000.07,-000.08,-000.40,18.2,24.5,07.4,05.0,0661.3,31.0
2021-07-15T05:36:00Z,00000200,00000000,0000.76,0000.59,0000.33,-000.20,0000.21,-000.15,0000.05,0000.12,0000.23,18.2,24.5,07.4,05.0,0661.3,31.0
2021-07-15T05:37:00Z,00000200,00000000,0001.17,0000.70,0000.47,-000.23,0000.25,0000.12,-000.05,0000.05,0000.13,18.2,24.5,07.5,05.1,0661.3,31.0
2021-07-15T05:38:00Z,00000200,00000000,0000.83,0000.75,0000.32,-000.43,0000.24,0000.33,-000.02,-000.02,0000.06,18.3,24.5,07.4,05.0,0661.3,31.0
2021-07-15T05:39:00Z,00000200,00000000,0001.20,0000.64,0000.58,0000.19,0000.42,0000.31,0000.29,0000.14,0000.27,18.4,24.6,07.4,05.1,0661.3,31.0
2021-07-15T05:40:00Z,00000200,00000000,0000.78,0000.89,0000.49,0000.03,-000.07,0000.37,-000.38,-000.02,-000.12,18.5,24.6,07.4,05.0,0661.3,31.0
2021-07-15T05:41:00Z,00000200,00000000,0000.51,0000.86,0000.44,0000.42,0000.06,-000.04,0000.15,0000.16,-000.26,18.5,24.6,07.3,05.0,0661.2,31.0
2021-07-15T05:42:00Z,00000200,00000000,0000.63,0000.84,0000.07,0000.62,0000.31,-000.20,-000.20,-000.04,0000.29,18.4,24.6,07.3,05.0,0661.2,31.0
2021-07-15T05:43:00Z,00000200,00000000,0000.91,0000.61,0000.22,0000.32,0000.12,0000.00,0000.19,-000.06,-000.25,18.4,24.6,07.3,05.0,0661.2,31.0
2021-07-15T05:44:00Z,00000200,00000000,0000.24,0000.47,0000.11,0000.28,0000.04,-000.03,-000.07,-000.19,-000.25,18.4,24.6,07.3,05.0,0661.3,31.0
2021-07-15T05:45:00Z,00000200,00000000,0000.71,0000.57,0000.30,0000.25,0000.23,0000.09,0000.00,0000.05,0000.20,18.3,24.5,07.3,05.0,0661.2,31.0
2021-07-15T05:46:00Z,00000200,00000000,0000.93,0000.78,0000.44,0000.19,0000.03,0000.19,-000.10,-000.25,-000.07,18.3,24.5,07.3,05.0,0661.2,31.0
2021-07-15T05:47:00Z,00000200,00000000,0000.48,0000.39,0000.32,-000.16,-000.02,0000.03,-000.14,-000.24,0000.00,18.3,24.5,07.2,04.9,0661.2,31.0
2021-07-15T05:48:00Z,00000200,00000000,0000.67,0000.50,0000.17,0000.16,0000.40,-000.25,-000.04,0000.38,-000.05,18.2,24.5,07.2,04.9,0661.2,31.0
2021-07-15T05:49:00Z,00000200,00000000,0001.16,0000.96,0000.18,0000.00,0000.38,-000.49,0000.07,0000.06,0000.01,18.2,24.5,07.0,04.8,0661.3,31.0
2021-07-15T05:50:00Z,00000200,00000000,0001.11,0000.43,0000.34,0000.23,-000.10,0000.05,-000.04,-000.33,-000.25,18.2,24.5,07.1,04.8,0661.3,31.0
2021-07-15T05:51:00Z,00000200,00000000,0001.48,0000.88,0000.33,0000.32,0000.17,0000.06,-000.11,-000.05,0000.43,18.2,24.5,07.1,04.8,0661.3,31.0
2021-07-15T05:52:00Z,00000200,00000000,0000.49,0000.90,0000.39,0000.44,-000.03,0000.10,0000.31,0000.20,-000.11,18.2,24.5,07.0,04.8,0661.3,31.0
2021-07-15T05:53:00Z,00000200,00000000,0000.70,0000.76,0000.25,0000.14,0000.16,0000.20,-000.05,0000.07,0000.10,18.3,24.5,06.9,04.7,0661.3,31.0
2021-07-15T05:54:00Z,00000200,00000000,0001.21,0001.06,0000.20,0000.08,0000.13,0000.09,-000.05,0000.14,-000.25,18.4,24.6,06.9,04.7,0661.3,31.0
2021-07-15T05:55:00Z,00000200,00000000,0001.34,0000.63,0000.10,0000.25,0000.17,-000.22,0000.08,-000.19,0000.24,18.4,24.6,06.8,04.7,0661.3,31.0
2021-07-15T05:56:00Z,00000200,00000000,0000.75,0000.61,0000.41,0000.33,-000.09,-000.09,0000.03,0000.03,-000.15,18.4,24.6,06.9,04.7,0661.3,31.0
2021-07-15T05:57:00Z,00000200,40000000,,,,,,,-000.04,-000.11,-000.12,18.5,24.6,06.7,04.6,0661.3,31.0
2021-07-15T05:58:00Z,00000200,60000000,,,,,,,-000.44,0000.12,0000.11,18.2,24.7,06.9,04.6,0660.3,31.0
2021-07-15T05:59:00Z,00000200,20000000,,,,,,,0000.16,-000.13,-000.27,18.1,24.8,06.9,04.6,0660.3,31.0
